Time,TemperatureF,DewpointF,PressureIn,WindDirection,WindDirectionDegrees,WindSpeedMPH,WindSpeedGustMPH,Humidity,HourlyPrecipIn,Conditions,Clouds,dailyrainin,SoftwareType,DateUTC
2013-08-05 00:02:00,66.5,57.6,30.01,East,90,0.0,0.0,73,0.00,,,0.00,WUHU216HW,2013-08-05 05:02:00,
2013-08-05 00:07:00,66.3,57.4,30.01,ESE,113,0.0,0.0,73,0.00,,,0.00,WUHU216HW,2013-08-05 05:07:00,
2013-08-05 00:12:00,66.3,57.8,30.01,SE,135,0.0,0.0,74,0.00,,,0.00,WUHU216HW,2013-08-05 05:12:00,
2013-08-05 00:17:00,66.2,57.6,30.01,SSE,158,0.0,0.0,74,0.00,,,0.00,WUHU216HW,2013-08-05 05:17:00,
2013-08-05 00:22:00,66.2,57.6,30.00,South,180,0.0,0.0,74,0.00,,,0.00,WUHU216HW,2013-08-05 05:22:00,
2013-08-05 00:27:00,66.0,57.8,30.00,South,180,0.0,0.0,75,0.00,,,0.00,WUHU216HW,2013-08-05 05:27:00,
2013-08-05 00:33:00,66.0,57.4,30.00,SSE,158,0.0,0.0,74,0.00,,,0.00,WUHU216HW,2013-08-05 05:33:00,
2013-08-05 00:38:00,66.0,57.8,30.00,NNW,338,0.0,0.0,75,0.00,,,0.00,WUHU216HW,2013-08-05 05:38:00,
2013-08-05 00:43:00,66.0,57.8,29.99,SSE,158,0.0,0.0,75,0.00,,,0.00,WUHU216HW,2013-08-05 05:43:00,
2013-08-05 00:48:00,65.8,57.6,29.99,ENE,68,0.0,0.0,75,0.00,,,0.00,WUHU216HW,2013-08-05 05:48:00,
2013-08-05 00:53:00,65.8,58.0,29.99,South,180,0.0,0.0,76,0.00,,,0.00,WUHU216HW,2013-08-05 05:53:00,
2013-08-05 00:58:00,65.6,57.8,29.99,South,180,0.0,0.0,76,0.00,,,0.00,WUHU216HW,2013-08-05 05:58:00,
2013-08-05 01:03:00,65.6,57.8,29.99,SE,135,0.0,0.0,76,0.00,,,0.00,WUHU216HW,2013-08-05 06:03:00,
2013-08-05 01:08:00,65.4,58.0,29.99,ESE,113,0.0,0.0,77,0.00,,,0.00,WUHU216HW,2013-08-05 06:08:00,
2013-08-05 01:13:00,65.3,57.8,29.99,WSW,248,0.0,0.0,77,0.00,,,0.00,WUHU216HW,2013-08-05 06:13:00,
2013-08-05 01:18:00,65.3,57.8,29.99,West,270,0.0,0.0,77,0.00,,,0.00,WUHU216HW,2013-08-05 06:18:00,
2013-08-05 01:23:00,65.1,57.7,29.99,SE,135,0.0,0.0,77,0.00,,,0.00,WUHU216HW,2013-08-05 06:23:00,
2013-08-05 01:28:00,65.1,58.0,29.98,ESE,113,0.0,1.1,78,0.00,,,0.00,WUHU216HW,2013-08-05 06:28:00,
2013-08-05 01:33:00,65.1,58.0,29.98,SSE,158,0.0,1.1,78,0.00,,,0.00,WUHU216HW,2013-08-05 06:33:00,
2013-08-05 01:38:00,65.1,58.0,29.97,SSE,158,0.0,0.0,78,0.00,,,0.00,WUHU216HW,2013-08-05 06:38:00,
2013-08-05 01:43:00,65.1,58.0,29.98,South,180,1.3,1.3,78,0.00,,,0.00,WUHU216HW,2013-08-05 06:43:00,
2013-08-05 01:48:00,65.3,58.6,29.98,SSE,158,1.7,1.7,79,0.00,,,0.00,WUHU216HW,2013-08-05 06:48:00,
2013-08-05 01:53:00,65.3,58.6,29.98,SSE,158,2.2,2.4,79,0.00,,,0.00,WUHU216HW,2013-08-05 06:53:00,
2013-08-05 01:58:00,65.4,58.8,29.97,SSW,203,2.2,2.4,79,0.00,,,0.00,WUHU216HW,2013-08-05 06:58:00,
2013-08-05 02:03:00,65.4,58.8,29.97,South,180,1.5,2.4,79,0.00,,,0.00,WUHU216HW,2013-08-05 07:03:00,
2013-08-05 02:08:00,65.4,58.8,29.97,South,180,2.6,2.6,79,0.00,,,0.00,WUHU216HW,2013-08-05 07:08:00,
2013-08-05 02:13:00,65.3,58.6,29.97,SSE,158,0.0,2.6,79,0.00,,,0.00,WUHU216HW,2013-08-05 07:13:00,
2013-08-05 02:18:00,65.3,58.6,29.97,SE,135,0.0,2.6,79,0.00,,,0.00,WUHU216HW,2013-08-05 07:18:00,
2013-08-05 02:23:00,65.3,59.0,29.97,South,180,3.1,4.4,80,0.00,,,0.00,WUHU216HW,2013-08-05 07:23:00,
2013-08-05 02:28:00,65.3,59.0,29.97,South,180,2.9,6.9,80,0.00,,,0.00,WUHU216HW,2013-08-05 07:28:00,
2013-08-05 02:33:00,65.4,59.1,29.97,South,180,2.0,6.9,80,0.00,,,0.00,WUHU216HW,2013-08-05 07:33:00,
2013-08-05 02:38:00,65.4,59.5,29.96,South,180,2.4,3.3,81,0.00,,,0.00,WUHU216HW,2013-08-05 07:38:00,
2013-08-05 02:43:00,65.4,59.5,29.96,SSE,158,0.0,3.3,81,0.00,,,0.00,WUHU216HW,2013-08-05 07:43:00,
2013-08-05 02:48:00,65.6,59.6,29.96,SSE,158,1.1,2.4,81,0.00,,,0.00,WUHU216HW,2013-08-05 07:48:00,
2013-08-05 02:53:00,65.8,59.8,29.96,SSE,158,1.5,2.4,81,0.00,,,0.00,WUHU216HW,2013-08-05 07:53:00,
2013-08-05 02:58:00,65.8,59.8,29.96,South,180,6.4,6.4,81,0.00,,,0.00,WUHU216HW,2013-08-05 07:58:00,
2013-08-05 03:03:00,65.8,59.8,29.95,SSE,158,1.5,6.4,81,0.00,,,0.00,WUHU216HW,2013-08-05 08:03:00,
2013-08-05 03:08:00,65.8,59.8,29.95,SSE,158,2.4,2.4,81,0.00,,,0.00,WUHU216HW,2013-08-05 08:08:00,
2013-08-05 03:13:00,66.0,60.0,29.95,South,180,0.0,2.4,81,0.00,,,0.00,WUHU216HW,2013-08-05 08:13:00,
2013-08-05 03:18:00,66.0,60.0,29.94,South,180,0.6,2.4,81,0.00,,,0.00,WUHU216HW,2013-08-05 08:18:00,
2013-08-05 03:23:00,66.0,60.0,29.94,SSE,158,0.0,3.8,81,0.00,,,0.00,WUHU216HW,2013-08-05 08:23:00,
2013-08-05 03:28:00,66.0,60.0,29.95,South,180,3.8,3.8,81,0.00,,,0.00,WUHU216HW,2013-08-05 08:28:00,
2013-08-05 03:33:00,66.0,60.0,29.94,South,180,3.8,3.8,81,0.00,,,0.00,WUHU216HW,2013-08-05 08:33:00,
2013-08-05 03:38:00,66.0,60.0,29.94,SSE,158,1.5,4.9,81,0.00,,,0.00,WUHU216HW,2013-08-05 08:38:00,
2013-08-05 03:44:00,66.0,60.0,29.94,SSE,158,3.5,4.9,81,0.00,,,0.00,WUHU216HW,2013-08-05 08:44:00,
2013-08-05 03:49:00,66.2,60.2,29.93,SSE,158,2.4,3.8,81,0.00,,,0.00,WUHU216HW,2013-08-05 08:49:00,
2013-08-05 03:53:00,66.2,60.2,29.93,South,180,4.6,4.6,81,0.00,,,0.00,WUHU216HW,2013-08-05 08:53:00,
2013-08-05 03:59:00,66.0,60.0,29.93,SSE,158,1.5,4.6,81,0.00,,,0.00,WUHU216HW,2013-08-05 08:59:00,
2013-08-05 04:04:00,66.0,60.0,29.93,South,180,3.3,4.4,81,0.00,,,0.00,WUHU216HW,2013-08-05 09:04:00,
2013-08-05 04:09:00,66.0,60.0,29.93,SSE,158,2.9,4.0,81,0.00,,,0.00,WUHU216HW,2013-08-05 09:09:00,
2013-08-05 04:14:00,66.2,60.2,29.93,South,180,2.4,3.8,81,0.00,,,0.00,WUHU216HW,2013-08-05 09:14:00,
2013-08-05 04:19:00,66.0,60.0,29.93,SSE,158,1.3,3.8,81,0.00,,,0.00,WUHU216HW,2013-08-05 09:19:00,
2013-08-05 04:24:00,66.0,60.0,29.93,South,180,3.5,3.5,81,0.00,,,0.00,WUHU216HW,2013-08-05 09:24:00,
2013-08-05 04:29:00,66.0,60.0,29.93,South,180,0.0,3.5,81,0.00,,,0.00,WUHU216HW,2013-08-05 09:29:00,
2013-08-05 04:35:00,66.0,60.0,29.93,SSE,158,3.5,4.0,81,0.00,,,0.00,WUHU216HW,2013-08-05 09:35:00,
2013-08-05 04:40:00,66.0,60.3,29.92,SSE,158,1.5,4.0,82,0.00,,,0.00,WUHU216HW,2013-08-05 09:40:00,
2013-08-05 04:45:00,66.0,60.3,29.92,South,180,6.0,6.0,82,0.00,,,0.00,WUHU216HW,2013-08-05 09:45:00,
2013-08-05 04:50:00,66.0,60.3,29.92,SSE,158,1.7,6.0,82,0.00,,,0.00,WUHU216HW,2013-08-05 09:50:00,
2013-08-05 04:56:00,66.0,60.3,29.92,SSE,158,1.3,3.3,82,0.00,,,0.00,WUHU216HW,2013-08-05 09:56:00,
2013-08-05 05:01:00,66.0,60.3,29.92,South,180,2.4,3.5,82,0.00,,,0.00,WUHU216HW,2013-08-05 10:01:00,
2013-08-05 05:06:00,66.0,60.3,29.92,South,180,0.8,3.5,82,0.00,,,0.00,WUHU216HW,2013-08-05 10:06:00,
2013-08-05 05:11:00,65.8,60.1,29.91,SSE,158,1.3,2.4,82,0.00,,,0.00,WUHU216HW,2013-08-05 10:11:00,
2013-08-05 05:17:00,65.8,60.1,29.92,South,180,0.8,2.4,82,0.00,,,0.00,WUHU216HW,2013-08-05 10:17:00,
2013-08-05 05:22:00,65.6,60.0,29.92,South,180,0.0,2.9,82,0.00,,,0.00,WUHU216HW,2013-08-05 10:22:00,
2013-08-05 05:27:00,65.4,59.8,29.93,South,180,1.7,2.9,82,0.00,,,0.00,WUHU216HW,2013-08-05 10:27:00,
2013-08-05 05:32:00,65.4,59.8,29.93,South,180,1.5,1.7,82,0.00,,,0.00,WUHU216HW,2013-08-05 10:32:00,
2013-08-05 05:37:00,65.4,59.8,29.92,SSE,158,1.3,1.5,82,0.00,,,0.00,WUHU216HW,2013-08-05 10:37:00,
2013-08-05 05:42:00,65.4,59.8,29.92,South,180,5.1,5.1,82,0.00,,,0.00,WUHU216HW,2013-08-05 10:42:00,
2013-08-05 05:48:00,65.4,60.1,29.92,South,180,3.5,5.1,83,0.00,,,0.00,WUHU216HW,2013-08-05 10:48:00,
2013-08-05 05:53:00,65.4,60.1,29.91,SSW,203,5.1,6.0,83,0.00,,,0.00,WUHU216HW,2013-08-05 10:53:00,
2013-08-05 05:58:00,65.4,60.1,29.92,South,180,0.0,6.0,83,0.00,,,0.00,WUHU216HW,2013-08-05 10:58:00,
2013-08-05 06:03:00,65.4,60.1,29.92,South,180,2.4,5.1,83,0.00,,,0.00,WUHU216HW,2013-08-05 11:03:00,
2013-08-05 06:08:00,65.4,60.1,29.92,South,180,4.0,4.0,83,0.00,,,0.00,WUHU216HW,2013-08-05 11:08:00,
2013-08-05 06:13:00,65.4,60.1,29.91,SSE,158,5.8,5.8,83,0.00,,,0.00,WUHU216HW,2013-08-05 11:13:00,
2013-08-05 06:18:00,65.4,60.1,29.91,SSE,158,0.6,9.1,83,0.00,,,0.00,WUHU216HW,2013-08-05 11:18:00,
2013-08-05 06:23:00,65.3,59.9,29.91,South,180,1.5,9.1,83,0.00,,,0.00,WUHU216HW,2013-08-05 11:23:00,
2013-08-05 06:29:00,65.3,59.9,29.91,South,180,2.2,3.8,83,0.00,,,0.00,WUHU216HW,2013-08-05 11:29:00,
2013-08-05 06:34:00,65.3,59.9,29.92,South,180,2.9,3.8,83,0.00,,,0.00,WUHU216HW,2013-08-05 11:34:00,
2013-08-05 06:39:00,65.3,59.9,29.91,South,180,5.8,5.8,83,0.00,,,0.00,WUHU216HW,2013-08-05 11:39:00,
2013-08-05 06:44:00,65.3,59.9,29.91,SSW,203,2.4,5.8,83,0.00,,,0.00,WUHU216HW,2013-08-05 11:44:00,
2013-08-05 06:49:00,65.3,59.9,29.91,South,180,1.1,5.3,83,0.00,,,0.00,WUHU216HW,2013-08-05 11:49:00,
2013-08-05 06:54:00,65.3,60.3,29.92,SSW,203,2.4,5.3,84,0.00,,,0.00,WUHU216HW,2013-08-05 11:54:00,
2013-08-05 06:59:00,65.4,60.4,29.92,South,180,0.0,3.5,84,0.00,,,0.00,WUHU216HW,2013-08-05 11:59:00,
2013-08-05 07:05:00,65.4,60.4,29.92,SE,135,0.0,3.5,84,0.00,,,0.00,WUHU216HW,2013-08-05 12:05:00,
2013-08-05 07:10:00,65.8,60.8,29.91,South,180,1.1,2.2,84,0.00,,,0.00,WUHU216HW,2013-08-05 12:10:00,
2013-08-05 07:15:00,66.0,61.0,29.91,SSE,158,1.1,1.3,84,0.00,,,0.00,WUHU216HW,2013-08-05 12:15:00,
2013-08-05 07:20:00,66.3,61.3,29.91,SSE,158,0.0,2.9,84,0.00,,,0.00,WUHU216HW,2013-08-05 12:20:00,
2013-08-05 07:26:00,66.3,61.3,29.91,South,180,0.0,2.9,84,0.00,,,0.00,WUHU216HW,2013-08-05 12:26:00,
2013-08-05 07:31:00,66.5,61.2,29.91,SE,135,2.0,2.9,83,0.00,,,0.00,WUHU216HW,2013-08-05 12:31:00,
2013-08-05 07:37:00,66.5,61.2,29.91,South,180,5.5,5.5,83,0.00,,,0.00,WUHU216HW,2013-08-05 12:37:00,
2013-08-05 07:42:00,66.9,61.9,29.91,South,180,3.8,5.5,84,0.00,,,0.00,WUHU216HW,2013-08-05 12:42:00,
2013-08-05 07:47:00,67.1,62.0,29.91,SE,135,3.1,8.7,84,0.00,,,0.00,WUHU216HW,2013-08-05 12:47:00,
2013-08-05 07:52:00,67.2,62.2,29.91,South,180,2.9,8.7,84,0.00,,,0.00,WUHU216HW,2013-08-05 12:52:00,
2013-08-05 07:57:00,67.6,62.6,29.90,South,180,3.5,4.4,84,0.00,,,0.00,WUHU216HW,2013-08-05 12:57:00,
2013-08-05 08:03:00,67.8,62.8,29.91,SSW,203,6.4,6.4,84,0.00,,,0.00,WUHU216HW,2013-08-05 13:03:00,
2013-08-05 08:08:00,68.5,63.1,29.91,South,180,6.0,6.4,83,0.00,,,0.00,WUHU216HW,2013-08-05 13:08:00,
2013-08-05 08:13:00,68.9,63.5,29.91,South,180,2.6,6.0,83,0.00,,,0.00,WUHU216HW,2013-08-05 13:13:00,
2013-08-05 08:18:00,69.6,64.1,29.90,South,180,6.0,6.0,83,0.00,,,0.00,WUHU216HW,2013-08-05 13:18:00,
2013-08-05 08:24:00,69.6,64.1,29.91,SSW,203,6.2,8.2,83,0.00,,,0.00,WUHU216HW,2013-08-05 13:24:00,
2013-08-05 08:29:00,70.1,64.3,29.91,South,180,4.6,8.2,82,0.00,,,0.00,WUHU216HW,2013-08-05 13:29:00,
2013-08-05 08:34:00,70.7,65.2,29.90,South,180,3.1,5.1,83,0.00,,,0.00,WUHU216HW,2013-08-05 13:34:00,
2013-08-05 08:39:00,70.8,65.0,29.90,North,0,0.0,4.4,82,0.00,,,0.00,WUHU216HW,2013-08-05 13:39:00,
2013-08-05 08:44:00,70.8,65.0,29.91,SSW,203,5.5,5.5,82,0.00,,,0.00,WUHU216HW,2013-08-05 13:44:00,
2013-08-05 08:49:00,71.2,65.4,29.90,South,180,3.5,5.5,82,0.00,,,0.00,WUHU216HW,2013-08-05 13:49:00,
2013-08-05 08:54:00,71.4,65.6,29.90,South,180,3.5,5.5,82,0.00,,,0.00,WUHU216HW,2013-08-05 13:54:00,
2013-08-05 08:59:00,71.7,65.6,29.90,South,180,6.0,10.5,81,0.00,,,0.00,WUHU216HW,2013-08-05 13:59:00,
2013-08-05 09:05:00,71.7,65.6,29.90,South,180,2.2,10.5,81,0.00,,,0.00,WUHU216HW,2013-08-05 14:05:00,
2013-08-05 09:09:00,72.1,66.0,29.89,SW,225,2.9,6.0,81,0.00,,,0.00,WUHU216HW,2013-08-05 14:09:00,
2013-08-05 09:14:00,72.1,66.0,29.89,SSW,203,6.9,6.9,81,0.00,,,0.00,WUHU216HW,2013-08-05 14:14:00,
2013-08-05 09:19:00,72.1,66.0,29.89,SSE,158,5.3,6.9,81,0.00,,,0.00,WUHU216HW,2013-08-05 14:19:00,
2013-08-05 09:25:00,72.3,66.1,29.89,South,180,7.6,9.1,81,0.00,,,0.00,WUHU216HW,2013-08-05 14:25:00,
2013-08-05 09:30:00,72.3,66.1,29.88,SW,225,3.1,9.1,81,0.00,,,0.00,WUHU216HW,2013-08-05 14:30:00,
2013-08-05 09:35:00,72.5,66.3,29.88,SW,225,5.5,7.6,81,0.00,,,0.00,WUHU216HW,2013-08-05 14:35:00,
2013-08-05 09:40:00,72.6,66.5,29.89,SSW,203,2.0,6.4,81,0.00,,,0.00,WUHU216HW,2013-08-05 14:40:00,
2013-08-05 09:45:00,73.0,66.9,29.89,WSW,248,2.0,5.1,81,0.00,,,0.00,WUHU216HW,2013-08-05 14:45:00,
2013-08-05 09:50:00,73.4,67.2,29.89,SSW,203,2.4,2.4,81,0.00,,,0.00,WUHU216HW,2013-08-05 14:50:00,
2013-08-05 09:55:00,73.9,67.4,29.89,SW,225,3.5,4.0,80,0.00,,,0.00,WUHU216HW,2013-08-05 14:55:00,
2013-08-05 10:00:00,74.3,67.8,29.89,WSW,248,1.3,4.0,80,0.00,,,0.00,WUHU216HW,2013-08-05 15:00:00,
2013-08-05 10:05:00,74.4,68.0,29.89,SW,225,5.8,6.0,80,0.00,,,0.00,WUHU216HW,2013-08-05 15:05:00,
2013-08-05 10:10:00,74.4,67.6,29.89,South,180,0.0,6.0,79,0.00,,,0.00,WUHU216HW,2013-08-05 15:10:00,
2013-08-05 10:15:00,74.8,67.9,29.89,SSE,158,1.5,4.2,79,0.00,,,0.00,WUHU216HW,2013-08-05 15:15:00,
2013-08-05 10:21:00,75.0,68.1,29.90,WNW,293,0.0,2.2,79,0.00,,,0.00,WUHU216HW,2013-08-05 15:21:00,
2013-08-05 10:25:00,75.0,67.7,29.90,WSW,248,2.0,2.2,78,0.00,,,0.00,WUHU216HW,2013-08-05 15:25:00,
2013-08-05 10:31:00,75.3,68.4,29.90,SW,225,2.0,2.9,79,0.00,,,0.00,WUHU216HW,2013-08-05 15:31:00,
2013-08-05 10:36:00,75.5,68.2,29.90,South,180,0.6,2.9,78,0.00,,,0.00,WUHU216HW,2013-08-05 15:36:00,
2013-08-05 10:41:00,75.7,68.4,29.89,SSW,203,2.0,2.2,78,0.00,,,0.00,WUHU216HW,2013-08-05 15:41:00,
2013-08-05 10:47:00,75.7,68.0,29.90,SSW,203,4.0,4.0,77,0.00,,,0.00,WUHU216HW,2013-08-05 15:47:00,
2013-08-05 10:52:00,75.7,68.0,29.90,East,90,0.0,4.0,77,0.00,,,0.00,WUHU216HW,2013-08-05 15:52:00,
2013-08-05 10:58:00,75.7,68.0,29.90,SSW,203,1.5,1.7,77,0.00,,,0.00,WUHU216HW,2013-08-05 15:58:00,
2013-08-05 11:03:00,75.9,68.1,29.90,ESE,113,0.0,1.5,77,0.00,,,0.00,WUHU216HW,2013-08-05 16:03:00,
2013-08-05 11:08:00,76.6,69.2,29.90,ESE,113,0.0,1.5,78,0.00,,,0.00,WUHU216HW,2013-08-05 16:08:00,
2013-08-05 11:13:00,76.8,69.0,29.90,SSW,203,0.0,2.9,77,0.00,,,0.00,WUHU216HW,2013-08-05 16:13:00,
2013-08-05 11:19:00,77.1,69.3,29.90,SSE,158,0.0,3.8,77,0.00,,,0.00,WUHU216HW,2013-08-05 16:19:00,
2013-08-05 11:24:00,77.5,69.7,29.89,ESE,113,0.0,3.8,77,0.00,,,0.00,WUHU216HW,2013-08-05 16:24:00,
2013-08-05 11:29:00,77.9,70.0,29.90,NE,45,0.0,0.0,77,0.00,,,0.00,WUHU216HW,2013-08-05 16:29:00,
2013-08-05 11:34:00,78.0,69.4,29.90,SSE,158,0.0,2.9,75,0.00,,,0.00,WUHU216HW,2013-08-05 16:34:00,
2013-08-05 11:39:00,77.9,69.2,29.91,ENE,68,0.0,2.9,75,0.00,,,0.00,WUHU216HW,2013-08-05 16:39:00,
2013-08-05 11:44:00,77.9,69.2,29.90,SE,135,0.0,2.4,75,0.00,,,0.00,WUHU216HW,2013-08-05 16:44:00,
2013-08-05 11:50:00,78.4,69.8,29.90,SE,135,0.0,0.0,75,0.00,,,0.00,WUHU216HW,2013-08-05 16:50:00,
2013-08-05 11:54:00,78.9,69.9,29.90,SE,135,0.0,2.4,74,0.00,,,0.00,WUHU216HW,2013-08-05 16:54:00,
2013-08-05 12:00:00,79.1,70.1,29.90,WSW,248,3.3,3.3,74,0.00,,,0.00,WUHU216HW,2013-08-05 17:00:00,
2013-08-05 12:05:00,79.3,69.9,29.89,SSW,203,2.2,3.3,73,0.00,,,0.00,WUHU216HW,2013-08-05 17:05:00,
2013-08-05 12:10:00,79.5,70.0,29.89,South,180,1.5,2.9,73,0.00,,,0.00,WUHU216HW,2013-08-05 17:10:00,
2013-08-05 12:15:00,79.5,70.0,29.89,SSW,203,3.5,6.2,73,0.00,,,0.00,WUHU216HW,2013-08-05 17:15:00,
2013-08-05 12:21:00,79.5,70.0,29.89,South,180,2.4,6.2,73,0.00,,,0.00,WUHU216HW,2013-08-05 17:21:00,
2013-08-05 12:25:00,79.1,69.3,29.89,SSW,203,3.5,5.1,72,0.00,,,0.00,WUHU216HW,2013-08-05 17:25:00,
2013-08-05 12:32:00,78.9,69.1,29.90,SW,225,0.0,5.1,72,0.00,,,0.00,WUHU216HW,2013-08-05 17:32:00,
2013-08-05 12:37:00,78.4,69.0,29.90,SW,225,3.1,3.1,73,0.00,,,0.00,WUHU216HW,2013-08-05 17:37:00,
2013-08-05 12:42:00,77.7,68.3,29.90,SSE,158,2.0,3.1,73,0.00,,,0.00,WUHU216HW,2013-08-05 17:42:00,
2013-08-05 12:48:00,77.5,68.5,29.89,South,180,0.0,4.0,74,0.00,,,0.00,WUHU216HW,2013-08-05 17:48:00,
2013-08-05 12:53:00,76.8,67.8,29.89,South,180,1.5,4.6,74,0.00,,,0.00,WUHU216HW,2013-08-05 17:53:00,
2013-08-05 12:59:00,76.6,68.4,29.90,South,180,0.0,4.6,76,0.00,,,0.00,WUHU216HW,2013-08-05 17:59:00,
2013-08-05 13:04:00,76.6,68.4,29.89,SSE,158,0.0,3.8,76,0.00,,,0.00,WUHU216HW,2013-08-05 18:04:00,
2013-08-05 13:09:00,76.8,69.0,29.88,SSE,158,0.0,1.3,77,0.00,,,0.00,WUHU216HW,2013-08-05 18:09:00,
2013-08-05 13:14:00,77.3,69.5,29.89,SSW,203,0.0,3.3,77,0.00,,,0.00,WUHU216HW,2013-08-05 18:14:00,
2013-08-05 13:20:00,77.5,69.7,29.88,South,180,2.9,3.3,77,0.00,,,0.00,WUHU216HW,2013-08-05 18:20:00,
2013-08-05 13:25:00,78.0,70.2,29.88,SSE,158,0.0,2.9,77,0.00,,,0.00,WUHU216HW,2013-08-05 18:25:00,
2013-08-05 13:31:00,78.9,71.1,29.87,South,180,2.4,2.4,77,0.00,,,0.00,WUHU216HW,2013-08-05 18:31:00,
2013-08-05 13:36:00,80.4,72.1,29.87,SSW,203,8.0,8.0,76,0.00,,,0.00,WUHU216HW,2013-08-05 18:36:00,
2013-08-05 13:41:00,81.3,72.6,29.86,South,180,5.3,8.0,75,0.00,,,0.00,WUHU216HW,2013-08-05 18:41:00,
2013-08-05 13:46:00,82.7,73.1,29.86,SE,135,0.0,8.0,73,0.00,,,0.00,WUHU216HW,2013-08-05 18:46:00,
2013-08-05 13:51:00,83.6,73.6,29.84,ESE,113,0.0,4.4,72,0.00,,,0.00,WUHU216HW,2013-08-05 18:51:00,
2013-08-05 13:56:00,84.5,73.7,29.82,SSE,158,6.7,8.5,70,0.00,,,0.00,WUHU216HW,2013-08-05 18:56:00,
2013-08-05 14:02:00,84.5,73.2,29.83,South,180,2.0,8.5,69,0.00,,,0.00,WUHU216HW,2013-08-05 19:02:00,
2013-08-05 14:07:00,84.7,73.4,29.84,SE,135,0.0,6.7,69,0.00,,,0.00,WUHU216HW,2013-08-05 19:07:00,
2013-08-05 14:12:00,85.1,73.8,29.84,SE,135,3.5,6.2,69,0.00,,,0.00,WUHU216HW,2013-08-05 19:12:00,
2013-08-05 14:17:00,85.1,72.9,29.83,South,180,4.0,6.2,67,0.00,,,0.00,WUHU216HW,2013-08-05 19:17:00,
2013-08-05 14:22:00,84.9,72.7,29.83,South,180,4.2,4.2,67,0.00,,,0.00,WUHU216HW,2013-08-05 19:22:00,
2013-08-05 14:28:00,84.0,71.8,29.85,South,180,5.3,6.0,67,0.00,,,0.00,WUHU216HW,2013-08-05 19:28:00,
2013-08-05 14:33:00,83.1,71.4,29.84,SSE,158,4.0,6.0,68,0.00,,,0.00,WUHU216HW,2013-08-05 19:33:00,
2013-08-05 14:39:00,82.7,71.5,29.84,SSE,158,0.0,4.0,69,0.00,,,0.00,WUHU216HW,2013-08-05 19:39:00,
2013-08-05 14:44:00,82.2,71.4,29.83,South,180,3.8,3.8,70,0.00,,,0.00,WUHU216HW,2013-08-05 19:44:00,
2013-08-05 14:49:00,82.2,71.4,29.83,South,180,3.8,3.8,70,0.00,,,0.00,WUHU216HW,2013-08-05 19:49:00,
2013-08-05 14:54:00,82.0,70.8,29.83,South,180,3.5,3.8,69,0.00,,,0.00,WUHU216HW,2013-08-05 19:54:00,
2013-08-05 15:00:00,81.8,71.1,29.83,South,180,2.4,3.8,70,0.00,,,0.00,WUHU216HW,2013-08-05 20:00:00,
2013-08-05 15:05:00,82.0,71.2,29.83,SSE,158,0.0,3.5,70,0.00,,,0.00,WUHU216HW,2013-08-05 20:05:00,
2013-08-05 15:10:00,82.2,71.4,29.82,South,180,7.8,7.8,70,0.00,,,0.00,WUHU216HW,2013-08-05 20:10:00,
2013-08-05 15:15:00,82.2,71.4,29.81,SSE,158,0.6,7.8,70,0.00,,,0.00,WUHU216HW,2013-08-05 20:15:00,
2013-08-05 15:20:00,82.2,71.4,29.80,SW,225,0.0,7.8,70,0.00,,,0.00,WUHU216HW,2013-08-05 20:20:00,
2013-08-05 15:25:00,82.4,71.6,29.78,ESE,113,0.0,3.3,70,0.00,,,0.00,WUHU216HW,2013-08-05 20:25:00,
2013-08-05 15:30:00,82.2,71.8,29.79,SSE,158,3.1,5.5,71,0.00,,,0.00,WUHU216HW,2013-08-05 20:30:00,
2013-08-05 15:35:00,82.0,71.6,29.79,South,180,1.3,6.4,71,0.00,,,0.00,WUHU216HW,2013-08-05 20:35:00,
2013-08-05 15:41:00,82.0,71.6,29.78,SSW,203,5.8,6.4,71,0.00,,,0.00,WUHU216HW,2013-08-05 20:41:00,
2013-08-05 15:46:00,81.8,71.5,29.76,SE,135,4.0,6.7,71,0.00,,,0.00,WUHU216HW,2013-08-05 20:46:00,
2013-08-05 15:52:00,81.6,71.3,29.76,SE,135,3.8,6.7,71,0.00,,,0.00,WUHU216HW,2013-08-05 20:52:00,
2013-08-05 15:57:00,81.6,71.7,29.77,SSE,158,0.6,6.0,72,0.00,,,0.00,WUHU216HW,2013-08-05 20:57:00,
2013-08-05 16:02:00,82.2,72.2,29.77,SE,135,2.0,3.5,72,0.00,,,0.00,WUHU216HW,2013-08-05 21:02:00,
2013-08-05 16:07:00,82.5,72.5,29.77,SSE,158,3.5,3.5,72,0.00,,,0.00,WUHU216HW,2013-08-05 21:07:00,
2013-08-05 16:12:00,83.4,73.4,29.77,West,270,2.0,3.5,72,0.00,,,0.00,WUHU216HW,2013-08-05 21:12:00,
2013-08-05 16:17:00,84.2,73.7,29.78,SE,135,0.0,2.0,71,0.00,,,0.00,WUHU216HW,2013-08-05 21:17:00,
2013-08-05 16:22:00,85.6,74.8,29.79,West,270,0.0,0.0,70,0.00,,,0.00,WUHU216HW,2013-08-05 21:22:00,
2013-08-05 16:27:00,86.5,75.2,29.78,SSE,158,1.5,1.5,69,0.00,,,0.00,WUHU216HW,2013-08-05 21:27:00,
2013-08-05 16:32:00,87.0,75.2,29.79,SE,135,0.0,1.5,68,0.00,,,0.00,WUHU216HW,2013-08-05 21:32:00,
2013-08-05 16:37:00,87.6,75.2,29.78,SSE,158,0.0,1.5,67,0.00,,,0.00,WUHU216HW,2013-08-05 21:37:00,
2013-08-05 16:43:00,87.9,74.7,29.79,East,90,1.5,1.5,65,0.00,,,0.00,WUHU216HW,2013-08-05 21:43:00,
2013-08-05 16:48:00,87.6,73.9,29.79,East,90,0.0,1.7,64,0.00,,,0.00,WUHU216HW,2013-08-05 21:48:00,
2013-08-05 16:53:00,87.0,73.4,29.79,NE,45,0.0,1.7,64,0.00,,,0.00,WUHU216HW,2013-08-05 21:53:00,
2013-08-05 16:58:00,86.7,73.5,29.79,SSE,158,0.0,0.0,65,0.00,,,0.00,WUHU216HW,2013-08-05 21:58:00,
2013-08-05 17:03:00,86.7,73.0,29.79,NNE,23,0.0,0.0,64,0.00,,,0.00,WUHU216HW,2013-08-05 22:03:00,
2013-08-05 17:08:00,86.1,73.0,29.79,WSW,248,0.0,0.0,65,0.00,,,0.00,WUHU216HW,2013-08-05 22:08:00,
2013-08-05 17:13:00,85.8,72.6,29.80,NW,315,0.0,0.0,65,0.00,,,0.00,WUHU216HW,2013-08-05 22:13:00,
2013-08-05 17:19:00,85.8,73.1,29.80,SSW,203,0.0,0.0,66,0.00,,,0.00,WUHU216HW,2013-08-05 22:19:00,
2013-08-05 17:24:00,86.1,73.8,29.79,ESE,113,0.0,2.9,66,0.00,,,0.00,WUHU216HW,2013-08-05 22:24:00,
2013-08-05 17:29:00,87.0,74.3,29.79,East,90,0.0,2.9,66,0.00,,,0.00,WUHU216HW,2013-08-05 22:29:00,
2013-08-05 17:34:00,87.4,74.2,29.79,SSE,158,0.0,0.0,65,0.00,,,0.00,WUHU216HW,2013-08-05 22:34:00,
2013-08-05 17:39:00,87.9,73.9,29.79,SSE,158,2.2,2.2,65,0.00,,,0.00,WUHU216HW,2013-08-05 22:39:00,
2013-08-05 17:45:00,88.3,74.6,29.79,SE,135,0.0,2.2,64,0.00,,,0.00,WUHU216HW,2013-08-05 22:45:00,
2013-08-05 17:50:00,89.2,75.0,29.79,East,90,0.0,2.2,63,0.00,,,0.00,WUHU216HW,2013-08-05 22:50:00,
2013-08-05 17:55:00,89.4,74.6,29.79,NE,45,0.0,0.0,62,0.00,,,0.00,WUHU216HW,2013-08-05 22:55:00,
2013-08-05 18:00:00,89.2,74.5,29.79,SE,135,0.0,1.1,62,0.00,,,0.00,WUHU216HW,2013-08-05 23:00:00,
2013-08-05 18:05:00,89.2,74.5,29.79,SSW,203,2.9,2.9,62,0.00,,,0.00,WUHU216HW,2013-08-05 23:05:00,
2013-08-05 18:10:00,89.2,74.5,29.78,SE,135,2.0,3.8,62,0.00,,,0.00,WUHU216HW,2013-08-05 23:10:00,
2013-08-05 18:16:00,89.2,74.0,29.78,SE,135,0.0,3.8,61,0.00,,,0.00,WUHU216HW,2013-08-05 23:16:00,
2013-08-05 18:21:00,89.0,73.9,29.78,South,180,0.0,1.3,61,0.00,,,0.00,WUHU216HW,2013-08-05 23:21:00,
2013-08-05 18:26:00,89.2,74.0,29.79,ESE,113,0.0,1.3,61,0.00,,,0.00,WUHU216HW,2013-08-05 23:26:00,
2013-08-05 18:31:00,89.2,74.5,29.78,SE,135,0.0,1.5,62,0.00,,,0.00,WUHU216HW,2013-08-05 23:31:00,
2013-08-05 18:37:00,89.4,74.2,29.78,NW,315,0.0,1.5,61,0.00,,,0.00,WUHU216HW,2013-08-05 23:37:00,
2013-08-05 18:42:00,89.2,74.0,29.78,South,180,0.0,0.0,61,0.00,,,0.00,WUHU216HW,2013-08-05 23:42:00,
2013-08-05 18:47:00,89.2,74.0,29.78,SSE,158,0.0,0.0,61,0.00,,,0.00,WUHU216HW,2013-08-05 23:47:00,
2013-08-05 18:52:00,89.4,74.2,29.79,West,270,0.0,1.1,61,0.00,,,0.00,WUHU216HW,2013-08-05 23:52:00,
2013-08-05 18:58:00,89.4,74.2,29.79,SSW,203,0.0,1.1,61,0.00,,,0.00,WUHU216HW,2013-08-05 23:58:00,
2013-08-05 19:03:00,89.4,73.7,29.79,SSW,203,0.0,0.0,60,0.00,,,0.00,WUHU216HW,2013-08-06 00:03:00,
2013-08-05 19:08:00,88.8,73.7,29.79,NE,45,0.0,0.0,61,0.00,,,0.00,WUHU216HW,2013-08-06 00:08:00,
2013-08-05 19:13:00,88.3,73.2,29.79,South,180,0.0,0.0,61,0.00,,,0.00,WUHU216HW,2013-08-06 00:13:00,
2013-08-05 19:18:00,87.6,72.5,29.79,South,180,0.0,1.5,61,0.00,,,0.00,WUHU216HW,2013-08-06 00:18:00,
2013-08-05 19:23:00,87.0,72.5,29.79,South,180,0.0,1.5,62,0.00,,,0.00,WUHU216HW,2013-08-06 00:23:00,
2013-08-05 19:28:00,86.5,71.9,29.80,South,180,1.3,1.3,62,0.00,,,0.00,WUHU216HW,2013-08-06 00:28:00,
2013-08-05 19:33:00,85.6,72.0,29.79,SSE,158,0.0,1.3,64,0.00,,,0.00,WUHU216HW,2013-08-06 00:33:00,
2013-08-05 19:38:00,85.1,71.5,29.79,South,180,0.0,0.0,64,0.00,,,0.00,WUHU216HW,2013-08-06 00:38:00,
2013-08-05 19:43:00,84.5,71.4,29.79,SSE,158,0.0,0.0,65,0.00,,,0.00,WUHU216HW,2013-08-06 00:43:00,
2013-08-05 19:48:00,83.8,71.2,29.79,SSE,158,0.0,0.0,66,0.00,,,0.00,WUHU216HW,2013-08-06 00:48:00,
2013-08-05 19:53:00,83.3,71.1,29.79,SSE,158,0.0,0.0,67,0.00,,,0.00,WUHU216HW,2013-08-06 00:53:00,
2013-08-05 19:59:00,82.7,70.6,29.79,SSE,158,0.0,0.0,67,0.00,,,0.00,WUHU216HW,2013-08-06 00:59:00,
2013-08-05 20:04:00,82.2,70.5,29.79,South,180,0.0,0.0,68,0.00,,,0.00,WUHU216HW,2013-08-06 01:04:00,
2013-08-05 20:09:00,81.6,70.0,29.79,South,180,0.0,0.0,68,0.00,,,0.00,WUHU216HW,2013-08-06 01:09:00,
2013-08-05 20:14:00,81.5,70.3,29.80,South,180,0.0,0.0,69,0.00,,,0.00,WUHU216HW,2013-08-06 01:14:00,
2013-08-05 20:20:00,81.1,70.0,29.79,South,180,0.0,0.0,69,0.00,,,0.00,WUHU216HW,2013-08-06 01:20:00,
2013-08-05 20:27:00,80.4,69.8,29.79,South,180,0.0,0.0,70,0.00,,,0.00,WUHU216HW,2013-08-06 01:27:00,
2013-08-05 20:32:00,79.8,69.6,29.79,South,180,0.0,0.0,71,0.00,,,0.00,WUHU216HW,2013-08-06 01:32:00,
2013-08-05 20:38:00,79.3,69.5,29.80,South,180,0.0,0.0,72,0.00,,,0.00,WUHU216HW,2013-08-06 01:38:00,
2013-08-05 20:43:00,78.8,69.7,29.80,South,180,0.0,0.0,74,0.00,,,0.00,WUHU216HW,2013-08-06 01:43:00,
2013-08-05 20:48:00,78.4,69.8,29.80,South,180,0.0,0.0,75,0.00,,,0.00,WUHU216HW,2013-08-06 01:48:00,
2013-08-05 20:54:00,77.9,69.2,29.80,South,180,0.0,0.0,75,0.00,,,0.00,WUHU216HW,2013-08-06 01:54:00,
2013-08-05 20:59:00,77.5,69.7,29.81,South,180,0.0,0.0,77,0.00,,,0.00,WUHU216HW,2013-08-06 01:59:00,
2013-08-05 21:04:00,77.1,69.3,29.80,South,180,0.0,0.0,77,0.00,,,0.00,WUHU216HW,2013-08-06 02:04:00,
2013-08-05 21:09:00,76.6,69.2,29.80,South,180,0.0,0.0,78,0.00,,,0.00,WUHU216HW,2013-08-06 02:09:00,
2013-08-05 21:14:00,76.2,68.9,29.81,South,180,0.0,0.0,78,0.00,,,0.00,WUHU216HW,2013-08-06 02:14:00,
2013-08-05 21:20:00,76.1,69.1,29.81,South,180,0.0,0.0,79,0.00,,,0.00,WUHU216HW,2013-08-06 02:20:00,
2013-08-05 21:25:00,75.9,68.9,29.81,South,180,0.0,0.0,79,0.00,,,0.00,WUHU216HW,2013-08-06 02:25:00,
2013-08-05 21:30:00,75.7,68.8,29.80,South,180,0.0,0.0,79,0.00,,,0.00,WUHU216HW,2013-08-06 02:30:00,
2013-08-05 21:35:00,75.5,68.6,29.80,South,180,0.0,0.0,79,0.00,,,0.00,WUHU216HW,2013-08-06 02:35:00,
2013-08-05 21:40:00,75.2,68.3,29.80,South,180,0.0,0.0,79,0.00,,,0.00,WUHU216HW,2013-08-06 02:40:00,
2013-08-05 21:45:00,75.0,68.5,29.80,South,180,0.0,0.0,80,0.00,,,0.00,WUHU216HW,2013-08-06 02:45:00,
2013-08-05 21:50:00,74.8,68.3,29.80,South,180,0.0,0.0,80,0.00,,,0.00,WUHU216HW,2013-08-06 02:50:00,
2013-08-05 21:55:00,74.4,68.3,29.80,South,180,0.0,0.0,81,0.00,,,0.00,WUHU216HW,2013-08-06 02:55:00,
2013-08-05 22:00:00,74.4,68.3,29.80,SSE,158,0.0,0.0,81,0.00,,,0.00,WUHU216HW,2013-08-06 03:00:00,
2013-08-05 22:05:00,74.1,67.9,29.80,SSE,158,0.0,0.0,81,0.00,,,0.00,WUHU216HW,2013-08-06 03:05:00,
2013-08-05 22:10:00,73.9,67.8,29.80,SSE,158,0.0,0.0,81,0.00,,,0.00,WUHU216HW,2013-08-06 03:10:00,
2013-08-05 22:15:00,73.9,67.8,29.80,SSE,158,0.0,0.0,81,0.00,,,0.00,WUHU216HW,2013-08-06 03:15:00,
2013-08-05 22:21:00,73.5,67.7,29.79,SSE,158,0.0,0.0,82,0.00,,,0.00,WUHU216HW,2013-08-06 03:21:00,
2013-08-05 22:26:00,73.4,67.7,29.79,South,180,0.0,0.0,82,0.00,,,0.00,WUHU216HW,2013-08-06 03:26:00,
2013-08-05 22:31:00,73.2,67.7,29.79,South,180,0.0,0.0,83,0.00,,,0.00,WUHU216HW,2013-08-06 03:31:00,
2013-08-05 22:37:00,73.2,67.7,29.79,SSW,203,0.0,0.0,83,0.00,,,0.00,WUHU216HW,2013-08-06 03:37:00,
2013-08-05 22:42:00,73.2,67.7,29.79,South,180,0.0,0.0,83,0.00,,,0.00,WUHU216HW,2013-08-06 03:42:00,
2013-08-05 22:47:00,73.0,67.9,29.79,South,180,1.3,1.3,84,0.00,,,0.00,WUHU216HW,2013-08-06 03:47:00,
2013-08-05 22:52:00,72.8,67.7,29.79,South,180,1.5,1.5,84,0.00,,,0.00,WUHU216HW,2013-08-06 03:52:00,
2013-08-05 22:57:00,72.8,67.7,29.79,South,180,0.0,1.5,84,0.00,,,0.00,WUHU216HW,2013-08-06 03:57:00,
2013-08-05 23:01:00,72.6,67.9,29.79,SSE,158,0.0,1.5,85,0.00,,,0.00,WUHU216HW,2013-08-06 04:01:00,
2013-08-05 23:06:00,72.6,67.9,29.79,SSE,158,0.0,0.0,85,0.00,,,0.00,WUHU216HW,2013-08-06 04:06:00,
2013-08-05 23:11:00,72.6,68.2,29.79,SSE,158,0.0,0.0,86,0.00,,,0.00,WUHU216HW,2013-08-06 04:11:00,
2013-08-05 23:16:00,72.6,68.2,29.79,SSE,158,0.0,0.0,86,0.00,,,0.00,WUHU216HW,2013-08-06 04:16:00,
2013-08-05 23:21:00,72.6,68.2,29.79,SSE,158,0.0,0.0,86,0.00,,,0.00,WUHU216HW,2013-08-06 04:21:00,
2013-08-05 23:26:00,72.3,68.4,29.80,SSE,158,0.0,0.0,87,0.00,,,0.00,WUHU216HW,2013-08-06 04:26:00,
2013-08-05 23:31:00,72.3,68.2,29.80,SSW,203,2.4,2.4,87,0.00,,,0.00,WUHU216HW,2013-08-06 04:31:00,
2013-08-05 23:36:00,72.3,68.2,29.79,SSE,158,0.0,2.4,87,0.00,,,0.00,WUHU216HW,2013-08-06 04:36:00,
2013-08-05 23:41:00,72.3,68.5,29.80,SSE,158,0.0,1.7,88,0.00,,,0.00,WUHU216HW,2013-08-06 04:41:00,
2013-08-05 23:46:00,72.3,68.5,29.80,South,180,0.0,1.7,88,0.00,,,0.00,WUHU216HW,2013-08-06 04:46:00,
2013-08-05 23:51:00,72.3,68.5,29.80,South,180,2.4,2.4,88,0.00,,,0.00,WUHU216HW,2013-08-06 04:51:00,
2013-08-05 23:56:00,72.3,68.5,29.80,South,180,3.1,3.1,88,0.00,,,0.00,WUHU216HW,2013-08-06 04:56:00,